Location: ????????
(54.6123°N, 39.2099°E)
Time: 00:07:19
(UTC+00:00)

ARIANE 6 FM1 Upper Stage - Pass Details

Date: 13 August 2025
Orbit: 522 x 611 km, 62.0° (Epoch: 10 December)

Event Time Altitude Azimuth Distance (km) Brightness Sun altitude
Rises 21:53:46 0° 302° (WNW) 2,678 6.5 -20.8°
Reaches altitude 10° 21:56:03 10° 310° (NW) 1,796 5.6 -20.8°
Maximum altitude 21:59:52 40° 22° (NNE) 807 3.9 -20.7°
Drops below altitude 10° 22:03:47 10° 93° (E) 1,838 5.3 -20.6°
Sets 22:06:08 0° 101° (E) 2,748 6.2 -20.5°
